This is the latest recevied weather packets stored in our database for station/object WX1N. If no packets are shown the sender has not sent any weather packets the latest 10 day(s).
| Time | Temp. | Humidity | Pressure | Rain* | Wind** | Luminosity | Snow |
|---|---|---|---|---|---|---|---|
| 1777013103 | 2.78° C | 70% | 1010.3 hPa | 0 mm | - | - | - |
| 1777012803 | 2.78° C | 71% | 1010.4 hPa | 0 mm | - | - | - |
| 1777012503 | 2.78° C | 72% | 1010.3 hPa | 0 mm | - | - | - |
| 1777012203 | 2.22° C | 72% | 1010.3 hPa | 0 mm | - | - | - |
| 1777011904 | 2.22° C | 73% | 1010.3 hPa | 0 mm | - | - | - |
| 1777011603 | 2.22° C | 73% | 1010.3 hPa | 0 mm | - | - | - |
| 1777011303 | 2.22° C | 74% | 1010.3 hPa | 0 mm | - | - | - |
| 1777011003 | 2.22° C | 76% | 1010.2 hPa | 0 mm | - | - | - |
| 1777010703 | 1.67° C | 78% | 1010.2 hPa | 0 mm | - | - | - |
| 1777010403 | 1.11° C | 81% | 1010.2 hPa | 0 mm | - | - | - |
| 1777010103 | 0.56° C | 83% | 1010.3 hPa | 0 mm | - | - | - |
| 1777009804 | 0° C | 85% | 1010.3 hPa | 0 mm | - | - | - |
| 1777009503 | -0.56° C | 86% | 1010.3 hPa | 0 mm | - | - | - |
| 1777009203 | -0.56° C | 85% | 1010.4 hPa | 0 mm | - | - | - |
| 1777008903 | -0.56° C | 83% | 1010.4 hPa | 0 mm | - | - | - |
| 1777008603 | 0° C | 82% | 1010.4 hPa | 0 mm | - | - | - |
| 1777008304 | 0° C | 82% | 1010.4 hPa | 0 mm | - | - | - |
| 1777008003 | 0.56° C | 83% | 1010.4 hPa | 0 mm | - | - | - |
| 1777007703 | 0.56° C | 84% | 1010.5 hPa | 0 mm | - | - | - |
| 1777007403 | 0° C | 83% | 1010.4 hPa | 0 mm | - | - | - |
| 1777007103 | 0.56° C | 83% | 1010.3 hPa | 0 mm | - | - | - |
| 1777006803 | 0° C | 84% | 1010.3 hPa | 0 mm | - | - | - |
| 1777006503 | 0° C | 85% | 1010.3 hPa | 0 mm | - | - | - |
| 1777006204 | 0° C | 86% | 1010.3 hPa | 0 mm | - | - | - |
| 1777005903 | 0° C | 85% | 1010.3 hPa | 0 mm | - | - | - |
* Rain latest hour (hover to see other rain measurements)
** Current wind speed in m/s (hover to see current wind gust speed)